Weather History for Marco Island Airport, FL

Change the Weather History Date:

Saturday, March 8, 2014

  Actual Average (KAPF) Record (KAPF)
Temperature  
Mean Temperature 61 °F 69 °F  
Max Temperature 71 °F 79 °F 88 °F (1997)
Min Temperature 51 °F 59 °F 38 °F (1962)
Degree Days  
Heating Degree Days 4 1  
Month to date heating degree days 8  
Since 1 July heating degree days 241  
Cooling Degree Days 0 5  
Month to date cooling degree days 40  
Year to date cooling degree days 231  
Growing Degree Days 11 (Base 50)    
Moisture  
Dew Point 51 °F    
Average Humidity 70    
Maximum Humidity 88    
Minimum Humidity 43    
Precipitation  
Precipitation 0.00 in 0.07 in 4.83 in (1970)
Month to date precipitation 0.54  
Year to date precipitation 4.49  
Snow  
Snow 0.00 in - - ()
Month to date snowfall  
Since 1 July snowfall  
Snow Depth -    
Sea Level Pressure  
Sea Level Pressure 30.10 in    
Wind  
Wind Speed 6 mph (North)    
Max Wind Speed 13 mph    
Max Gust Speed -    
Visibility 10 miles    
Events      
T = Trace of Precipitation, MM = Missing Value Source: NWS Daily Summary

Daily Weather History Graph

Daily Weather History Graph

Search for Another Location

Airport:

Trip Planner

Search our weather history database for the weather conditions in past years. The results will help you decide how hot, cold, wet, or windy it might be!

Date:

Astronomy

Mar. 08, 2014 Rise Set
Actual Time 6:43 AM EST 6:32 PM EST
Civil Twilight 6:20 AM EST 6:55 PM EST
Nautical Twilight 5:53 AM EST 7:21 PM EST
Astronomical Twilight 5:26 AM EST 7:48 PM EST
Moon 11:59 AM EST (3/8) 12:53 AM EST (3/8)
Length of Visible Light 12h 34m
Length of Day
11h 48m
First Quarter, 51% of the Moon is Illuminated
Mar 8
First Quarter
Mar 16
Full
Mar 23
Last Quarter
Mar 30
New
Apr 7
First Quarter

Hourly Weather History & Observations

Time (EST) Temp. Dew Point Humidity Pressure Visibility Wind Dir Wind Speed Gust Speed Precip Events Conditions
12:15 AM 64.4 °F 51.8 °F 64% 30.04 in 10.0 mi North 6.9 mph - N/A   Overcast
12:35 AM 62.6 °F 51.8 °F 68% 30.04 in 10.0 mi North 5.8 mph - N/A   Overcast
12:55 AM 62.6 °F 51.8 °F 68% 30.04 in 10.0 mi North 4.6 mph - N/A   Overcast
1:15 AM 60.8 °F 51.8 °F 72% 30.04 in 10.0 mi NNE 6.9 mph - N/A   Mostly Cloudy
1:35 AM 60.8 °F 51.8 °F 72% 30.04 in 10.0 mi North 9.2 mph - N/A   Mostly Cloudy
1:55 AM 59.0 °F 50.0 °F 72% 30.04 in 10.0 mi NNE 5.8 mph - N/A   Scattered Clouds
2:15 AM 57.2 °F 50.0 °F 77% 30.04 in 10.0 mi NNE 8.1 mph - N/A   Clear
2:35 AM 57.2 °F 50.0 °F 77% 30.04 in 10.0 mi NNE 6.9 mph - N/A   Clear
2:55 AM 55.4 °F 48.2 °F 77% 30.04 in 10.0 mi NNE 8.1 mph - N/A   Clear
3:15 AM 55.4 °F 48.2 °F 77% 30.04 in 10.0 mi NNE 9.2 mph - N/A   Clear
3:35 AM 55.4 °F 48.2 °F 77% 30.03 in 10.0 mi NNE 6.9 mph - N/A   Mostly Cloudy
3:55 AM 53.6 °F 48.2 °F 82% 30.03 in 10.0 mi NE 5.8 mph - N/A   Partly Cloudy
4:15 AM 53.6 °F 48.2 °F 82% 30.04 in 10.0 mi NNE 4.6 mph - N/A   Clear
4:35 AM 53.6 °F 48.2 °F 82% 30.04 in 10.0 mi NNE 6.9 mph - N/A   Clear
4:55 AM 53.6 °F 46.4 °F 77% 30.04 in 10.0 mi NNE 5.8 mph - N/A   Clear
5:15 AM 51.8 °F 46.4 °F 82% 30.05 in 10.0 mi NNE 4.6 mph - N/A   Clear
5:35 AM 51.8 °F 46.4 °F 82% 30.06 in 10.0 mi NNE 6.9 mph - N/A   Clear
5:55 AM 51.8 °F 46.4 °F 82% 30.07 in 10.0 mi NE 5.8 mph - N/A   Clear
6:15 AM 51.8 °F 46.4 °F 82% 30.08 in 10.0 mi NNE 5.8 mph - N/A   Clear
6:35 AM 51.8 °F 46.4 °F 82% 30.10 in 10.0 mi North 3.5 mph - N/A   Clear
6:55 AM 51.8 °F 46.4 °F 82% 30.11 in 10.0 mi North 4.6 mph - N/A   Partly Cloudy
7:15 AM 51.8 °F 46.4 °F 82% 30.12 in 10.0 mi NNE 3.5 mph - N/A   Mostly Cloudy
7:35 AM 53.6 °F 46.4 °F 77% 30.13 in 10.0 mi NNE 5.8 mph - N/A   Overcast
7:55 AM 53.6 °F 46.4 °F 77% 30.14 in 10.0 mi NNE 6.9 mph - N/A   Overcast
8:15 AM 53.6 °F 46.4 °F 77% 30.14 in 10.0 mi NE 8.1 mph - N/A   Overcast
8:35 AM 55.4 °F 46.4 °F 72% 30.14 in 10.0 mi North 6.9 mph - N/A   Mostly Cloudy
8:55 AM 55.4 °F 46.4 °F 72% 30.15 in 10.0 mi NNE 5.8 mph - N/A   Overcast
9:15 AM 55.4 °F 46.4 °F 72% 30.16 in 10.0 mi NNE 6.9 mph - N/A   Overcast
9:35 AM 57.2 °F 46.4 °F 67% 30.15 in 10.0 mi NNE 8.1 mph - N/A   Scattered Clouds
9:55 AM 57.2 °F 46.4 °F 67% 30.16 in 10.0 mi NNE 9.2 mph - N/A   Clear
10:15 AM 59.0 °F 46.4 °F 63% 30.15 in 10.0 mi NNE 5.8 mph - N/A   Clear
10:35 AM 60.8 °F 46.4 °F 59% 30.14 in 10.0 mi NNE 10.4 mph - N/A   Clear
10:55 AM 62.6 °F 46.4 °F 55% 30.14 in 10.0 mi ENE 6.9 mph - N/A   Clear
11:15 AM 62.6 °F 46.4 °F 55% 30.14 in 10.0 mi East 3.5 mph - N/A   Clear
11:35 AM 64.4 °F 46.4 °F 52% 30.14 in 10.0 mi North 4.6 mph - N/A   Clear
11:55 AM 66.2 °F 46.4 °F 49% 30.13 in 10.0 mi Calm Calm - N/A   Clear
12:15 PM 66.2 °F 48.2 °F 52% 30.13 in 10.0 mi ENE 6.9 mph - N/A   Clear
12:35 PM 68.0 °F 48.2 °F 49% 30.12 in 10.0 mi NNE 3.5 mph - N/A   Clear
12:55 PM 69.8 °F 46.4 °F 43% 30.11 in 10.0 mi Calm Calm - N/A   Clear
1:15 PM 69.8 °F 48.2 °F 46% 30.10 in 10.0 mi NW 5.8 mph - N/A   Clear
1:35 PM 71.6 °F 51.8 °F 50% 30.09 in 10.0 mi NNW 4.6 mph - N/A   Clear
1:55 PM 71.6 °F 51.8 °F 50% 30.08 in 10.0 mi West 8.1 mph - N/A   Clear
2:15 PM 69.8 °F 53.6 °F 56% 30.08 in 10.0 mi WNW 10.4 mph - N/A   Clear
2:35 PM 69.8 °F 53.6 °F 56% 30.07 in 10.0 mi WNW 10.4 mph - N/A   Clear
2:55 PM 69.8 °F 53.6 °F 56% 30.07 in 10.0 mi WNW 11.5 mph - N/A   Clear
3:15 PM 69.8 °F 53.6 °F 56% 30.06 in 10.0 mi WNW 10.4 mph - N/A   Clear
3:35 PM 69.8 °F 53.6 °F 56% 30.06 in 10.0 mi WNW 12.7 mph - N/A   Clear
3:55 PM 69.8 °F 53.6 °F 56% 30.06 in 10.0 mi WSW 9.2 mph - N/A   Clear
4:15 PM 69.8 °F 55.4 °F 60% 30.07 in 10.0 mi West 6.9 mph - N/A   Clear
4:35 PM 69.8 °F 53.6 °F 56% 30.07 in 10.0 mi West 8.1 mph - N/A   Clear
4:55 PM 69.8 °F 55.4 °F 60% 30.07 in 10.0 mi West 11.5 mph - N/A   Clear
5:15 PM 68.0 °F 55.4 °F 64% 30.07 in 10.0 mi West 8.1 mph - N/A   Clear
5:35 PM 68.0 °F 55.4 °F 64% 30.08 in 10.0 mi West 6.9 mph - N/A   Clear
5:55 PM 66.2 °F 55.4 °F 68% 30.09 in 10.0 mi West 8.1 mph - N/A   Clear
6:15 PM 66.2 °F 55.4 °F 68% 30.09 in 10.0 mi WNW 8.1 mph - N/A   Clear
6:35 PM 64.4 °F 55.4 °F 73% 30.09 in 10.0 mi West 6.9 mph - N/A   Clear
6:55 PM 64.4 °F 55.4 °F 73% 30.10 in 10.0 mi WNW 6.9 mph - N/A   Clear
7:15 PM 64.4 °F 55.4 °F 73% 30.10 in 10.0 mi WNW 5.8 mph - N/A   Clear
7:35 PM 64.4 °F 55.4 °F 73% 30.11 in 10.0 mi NW 5.8 mph - N/A   Clear
7:55 PM 62.6 °F 55.4 °F 77% 30.11 in 10.0 mi NW 6.9 mph - N/A   Clear
8:15 PM 62.6 °F 57.2 °F 82% 30.12 in 10.0 mi NNW 5.8 mph - N/A   Clear
8:35 PM 62.6 °F 55.4 °F 77% 30.12 in 10.0 mi NNW 5.8 mph - N/A   Clear
8:55 PM 62.6 °F 55.4 °F 77% 30.12 in 10.0 mi NNW 3.5 mph - N/A   Clear
9:15 PM 62.6 °F 55.4 °F 77% 30.13 in 10.0 mi NNW 4.6 mph - N/A   Clear
9:35 PM 62.6 °F 57.2 °F 82% 30.13 in 10.0 mi NNW 3.5 mph - N/A   Clear
9:55 PM 62.6 °F 57.2 °F 82% 30.14 in 10.0 mi NNW 4.6 mph - N/A   Clear
10:15 PM 62.6 °F 57.2 °F 82% 30.14 in 10.0 mi NNW 3.5 mph - N/A   Clear
10:35 PM 62.6 °F 55.4 °F 77% 30.14 in 10.0 mi North 3.5 mph - N/A   Clear
10:55 PM 60.8 °F 57.2 °F 88% 30.14 in 10.0 mi North 3.5 mph - N/A   Clear
11:15 PM 60.8 °F 57.2 °F 88% 30.14 in 10.0 mi NNE 3.5 mph - N/A   Clear
11:35 PM 59.0 °F 55.4 °F 88% 30.14 in 10.0 mi NE 6.9 mph - N/A   Clear
11:55 PM 59.0 °F 55.4 °F 88% 30.14 in 10.0 mi NNE 5.8 mph - N/A   Clear